| time (UTC) | temp F | wind direction | speed MPH | gust MPH | rain 1hr in | rain 24hr in | rain mn in | humidity % | barometer mb |
| 20260507230101 | 49 | 0 | 0.0 | 2.0 | 0.00 | 1.07 | 1.07 | 100 | 1002.1 |
| 20260507224600 | 49 | 0 | 0.0 | 5.0 | 0.00 | 1.07 | 1.07 | 100 | 1002.2 |
| 20260507223056 | 50 | 0 | 0.0 | 4.0 | 0.00 | 1.07 | 1.07 | 100 | 1002.1 |
| 20260507221600 | 50 | 164 | 1.0 | 5.0 | 0.00 | 1.07 | 1.07 | 100 | 1002.4 |
| 20260507220056 | 50 | 0 | 2.0 | 5.0 | 0.00 | 1.07 | 1.07 | 100 | 1002.4 |
| 20260507214605 | 50 | 0 | 1.0 | 5.0 | 0.01 | 1.07 | 1.07 | 100 | 1002.4 |
| 20260507213057 | 50 | 164 | 3.0 | 5.0 | 0.01 | 1.07 | 1.07 | 100 | 1002.8 |
| 20260507211605 | 50 | 0 | 0.0 | 2.0 | 0.02 | 1.07 | 1.07 | 100 | 1002.4 |
| 20260507204557 | 50 | 249 | 3.0 | 7.0 | 0.07 | 1.05 | 1.05 | 100 | 1002.5 |
| 20260507203106 | 50 | 169 | 3.0 | 6.0 | 0.12 | 1.05 | 1.05 | 100 | 1002.5 |
| 20260507201612 | 50 | 167 | 2.0 | 7.0 | 0.20 | 1.04 | 1.04 | 100 | 1002.4 |
| 20260507200109 | 50 | 0 | 1.0 | 6.0 | 0.25 | 1.03 | 1.03 | 100 | 1003.0 |
| 20260507194557 | 50 | 0 | 1.0 | 7.0 | 0.28 | 0.99 | 0.99 | 100 | 1002.8 |
| 20260507193059 | 50 | 158 | 0.0 | 5.0 | 0.33 | 0.94 | 0.94 | 100 | 1003.7 |
| 20260507191600 | 50 | 0 | 0.0 | 0.0 | 0.34 | 0.85 | 0.85 | 100 | 1004.6 |
| 20260507190104 | 50 | 0 | 0.0 | 1.0 | 0.37 | 0.78 | 0.78 | 100 | 1004.7 |
| 20260507184600 | 49 | 0 | 0.0 | 1.0 | 0.45 | 0.70 | 0.70 | 100 | 1004.6 |
| 20260507183058 | 49 | 164 | 0.0 | 4.0 | 0.47 | 0.61 | 0.61 | 100 | 1004.8 |
| 20260507181601 | 49 | 184 | 2.0 | 7.0 | 0.41 | 0.51 | 0.51 | 100 | 1005.1 |
| 20260507180055 | 49 | 194 | 0.0 | 8.0 | 0.35 | 0.41 | 0.41 | 100 | 1005.3 |
| 20260507174558 | 49 | 259 | 3.0 | 12.0 | 0.20 | 0.24 | 0.24 | 100 | 1005.4 |
| 20260507173103 | 49 | 169 | 4.0 | 14.0 | 0.10 | 0.14 | 0.14 | 100 | 1004.8 |
| 20260507171600 | 49 | 281 | 5.0 | 16.0 | 0.06 | 0.10 | 0.10 | 100 | 1004.8 |
| 20260507170104 | 49 | 230 | 4.0 | 11.0 | 0.03 | 0.06 | 0.06 | 100 | 1005.1 |
| 20260507164601 | 49 | 152 | 3.0 | 13.0 | 0.01 | 0.04 | 0.04 | 100 | 1005.4 |
| 20260507163056 | 49 | 235 | 2.0 | 10.0 | 0.01 | 0.04 | 0.04 | 100 | 1006.1 |
| 20260507161558 | 50 | 223 | 4.0 | 15.0 | 0.01 | 0.04 | 0.04 | 100 | 1006.7 |
| 20260507160058 | 50 | 184 | 3.0 | 10.0 | 0.00 | 0.03 | 0.03 | 100 | 1007.3 |
| 20260507154600 | 50 | 0 | 3.0 | 9.0 | 0.00 | 0.03 | 0.03 | 100 | 1007.5 |
| 20260507153059 | 51 | 226 | 3.0 | 11.0 | 0.00 | 0.03 | 0.03 | 100 | 1007.9 |
| 20260507151555 | 51 | 153 | 2.0 | 13.0 | 0.00 | 0.03 | 0.03 | 100 | 1008.3 |
| 20260507150055 | 51 | 169 | 2.0 | 11.0 | 0.00 | 0.03 | 0.03 | 100 | 1008.5 |
| 20260507144557 | 52 | 209 | 3.0 | 11.0 | 0.00 | 0.03 | 0.03 | 100 | 1008.7 |
| 20260507143100 | 52 | 149 | 5.0 | 14.0 | 0.00 | 0.03 | 0.03 | 100 | 1008.8 |
| 20260507141557 | 53 | 222 | 3.0 | 14.0 | 0.00 | 0.03 | 0.03 | 100 | 1009.2 |
| 20260507140056 | 53 | 199 | 5.0 | 20.0 | 0.00 | 0.03 | 0.03 | 100 | 1009.5 |
| 20260507134603 | 52 | 242 | 3.0 | 9.0 | 0.00 | 0.03 | 0.03 | 100 | 1009.6 |
| 20260507133129 | 52 | 150 | 3.0 | 10.0 | 0.00 | 0.03 | 0.03 | 100 | 1009.5 |
| 20260507131558 | 51 | 171 | 2.0 | 9.0 | 0.00 | 0.03 | 0.03 | 100 | 1009.7 |
| 20260507130108 | 51 | 182 | 6.0 | 12.0 | 0.00 | 0.03 | 0.03 | 100 | 1009.9 |
| 20260507124558 | 51 | 178 | 3.0 | 12.0 | 0.00 | 0.03 | 0.03 | 100 | 1010.2 |
| 20260507123058 | 51 | 232 | 4.0 | 12.0 | 0.00 | 0.03 | 0.03 | 100 | 1009.9 |
| 20260507121611 | 51 | 142 | 4.0 | 10.0 | 0.01 | 0.03 | 0.03 | 100 | 1010.1 |
| 20260507120103 | 50 | 200 | 3.0 | 10.0 | 0.01 | 0.03 | 0.03 | 100 | 1010.4 |
| 20260507114638 | 50 | 187 | 3.0 | 10.0 | 0.01 | 0.03 | 0.03 | 100 | 1010.7 |
| 20260507113056 | 50 | 231 | 1.0 | 14.0 | 0.01 | 0.03 | 0.03 | 100 | 1011.2 |
| 20260507111601 | 50 | 155 | 4.0 | 12.0 | 0.01 | 0.02 | 0.02 | 100 | 1011.3 |
| 20260507110059 | 51 | 171 | 4.0 | 8.0 | 0.02 | 0.02 | 0.02 | 100 | 1011.6 |
| 20260507104558 | 51 | 258 | 3.0 | 9.0 | 0.02 | 0.02 | 0.02 | 100 | 1011.1 |
| 20260507103058 | 50 | 223 | 2.0 | 11.0 | 0.02 | 0.02 | 0.02 | 100 | 1011.3 |
| 20260507101603 | 49 | 217 | 1.0 | 4.0 | 0.01 | 0.01 | 0.01 | 100 | 1011.5 |
| 20260507094604 | 49 | 238 | 2.0 | 7.0 | 0.00 | 0.00 | 0.00 | 100 | 1012.1 |
| 20260507093058 | 49 | 0 | 0.0 | 4.0 | 0.00 | 0.00 | 0.00 | 100 | 1011.7 |
| 20260507091555 | 49 | 0 | 0.0 | 4.0 | 0.00 | 0.00 | 0.00 | 100 | 1012.0 |
| 20260507090100 | 49 | 236 | 3.0 | 9.0 | 0.00 | 0.00 | 0.00 | 100 | 1012.4 |
| 20260507084601 | 49 | 213 | 0.0 | 4.0 | 0.00 | 0.00 | 0.00 | 100 | 1012.3 |
| 20260507083056 | 49 | 0 | 0.0 | 6.0 | 0.00 | 0.00 | 0.00 | 100 | 1012.2 |
| 20260507081556 | 49 | 0 | 2.0 | 6.0 | 0.00 | 0.00 | 0.00 | 100 | 1012.1 |
| 20260507080120 | 49 | 0 | 1.0 | 5.0 | 0.00 | 0.00 | 0.00 | 100 | 1012.1 |
| 20260507074558 | 49 | 0 | 0.0 | 3.0 | 0.00 | 0.00 | 0.00 | 100 | 1012.6 |
| 20260507073106 | 49 | 0 | 0.0 | 5.0 | 0.00 | 0.00 | 0.00 | 100 | 1012.8 |
| 20260507071555 | 49 | 234 | 0.0 | 5.0 | 0.00 | 0.00 | 0.00 | 100 | 1013.4 |
| 20260507070055 | 49 | 234 | 1.0 | 6.0 | 0.00 | 0.00 | 0.00 | 100 | 1013.6 |
| 20260507064600 | 49 | 230 | 1.0 | 5.0 | 0.00 | 0.00 | 0.00 | 100 | 1013.6 |
| 20260507063105 | 49 | 242 | 4.0 | 8.0 | 0.00 | 0.00 | 0.00 | 100 | 1014.0 |
| 20260507061556 | 49 | 226 | 1.0 | 4.0 | 0.00 | 0.00 | 0.00 | 100 | 1013.7 |
| 20260507060056 | 50 | 227 | 0.0 | 5.0 | 0.00 | 0.00 | 0.00 | 100 | 1014.2 |
| 20260507054555 | 50 | 228 | 1.0 | 5.0 | 0.00 | 0.00 | 0.00 | 100 | 1014.4 |
| 20260507053109 | 50 | 228 | 2.0 | 6.0 | 0.00 | 0.00 | 0.00 | 100 | 1014.7 |
| 20260507051600 | 50 | 192 | 1.0 | 4.0 | 0.00 | 0.00 | 0.00 | 100 | 1015.1 |
| 20260507050058 | 50 | 192 | 2.0 | 7.0 | 0.00 | 0.00 | 0.00 | 100 | 1015.4 |
| 20260507044558 | 50 | 171 | 2.0 | 7.0 | 0.00 | 0.00 | 0.00 | 100 | 1015.8 |
| 20260507043055 | 50 | 187 | 1.0 | 5.0 | 0.00 | 0.00 | 0.00 | 100 | 1016.0 |
| 20260507041559 | 51 | 0 | 2.0 | 5.0 | 0.00 | 0.00 | 0.00 | 100 | 1016.3 |
| 20260507034558 | 51 | 213 | 2.0 | 6.0 | 0.00 | 0.00 | 0.00 | 100 | 1017.0 |
| 20260507033101 | 51 | 157 | 2.0 | 7.0 | 0.00 | 0.00 | 0.00 | 99 | 1017.2 |
| 20260507031557 | 51 | 225 | 1.0 | 4.0 | 0.00 | 0.00 | 0.00 | 99 | 1017.3 |
| 20260507030055 | 50 | 0 | 0.0 | 1.0 | 0.00 | 0.00 | 0.00 | 99 | 1017.4 |
| 20260507024606 | 50 | 0 | 0.0 | 0.0 | 0.00 | 0.00 | 0.00 | 98 | 1017.5 |
| 20260507023057 | 51 | 0 | 0.0 | 2.0 | 0.00 | 0.00 | 0.00 | 97 | 1017.7 |
| 20260507021559 | 51 | 0 | 0.0 | 3.0 | 0.00 | 0.00 | 0.00 | 97 | 1017.9 |
| 20260507020113 | 51 | 0 | 0.0 | 3.0 | 0.00 | 0.00 | 0.00 | 97 | 1018.0 |
| 20260507014603 | 51 | 0 | 0.0 | 2.0 | 0.00 | 0.00 | 0.00 | 96 | 1018.0 |
| 20260507013057 | 52 | 225 | 0.0 | 4.0 | 0.00 | 0.00 | 0.00 | 95 | 1018.2 |
| 20260507011555 | 52 | 226 | 1.0 | 4.0 | 0.00 | 0.00 | 0.00 | 94 | 1018.2 |
| 20260507004605 | 53 | 223 | 1.0 | 4.0 | 0.00 | 0.00 | 0.00 | 92 | 1018.4 |
| 20260507003057 | 54 | 223 | 2.0 | 5.0 | 0.00 | 0.00 | 0.00 | 92 | 1018.3 |
| 20260507001601 | 54 | 0 | 2.0 | 6.0 | 0.00 | 0.00 | 0.00 | 92 | 1018.5 |
| 20260507000101 | 54 | 0 | 1.0 | 5.0 | 0.00 | 0.00 | 0.00 | 91 | 1018.5 |
| 20260506234559 | 54 | 133 | 2.0 | 7.0 | 0.00 | 0.00 | 0.00 | 90 | 1018.4 |
| 20260506233112 | 54 | 0 | 1.0 | 8.0 | 0.00 | 0.00 | 0.00 | 89 | 1018.3 |
| 20260506231603 | 55 | 163 | 3.0 | 10.0 | 0.00 | 0.00 | 0.00 | 88 | 1018.2 |